This is the latest recevied weather packets stored in our database for station/object DM1HF-13. If no packets are shown the sender has not sent any weather packets the latest 10 day(s).
| Time | Temp. | Humidity | Pressure | Rain* | Wind** | Luminosity | Snow |
|---|---|---|---|---|---|---|---|
| 1777926916 | 18.33° C | 68% | 1014.3 hPa | 2.29 mm | - | 0 W/m² | - |
| 1777926616 | 18.33° C | 65% | 1014.1 hPa | 0 mm | - | 0 W/m² | - |
| 1777926316 | 18.33° C | 64% | 1014.1 hPa | 0 mm | - | 0 W/m² | - |
| 1777926016 | 18.33° C | 66% | 1014 hPa | 0 mm | - | 0 W/m² | - |
| 1777925716 | 18.33° C | 67% | 1013.8 hPa | 0 mm | - | 0 W/m² | - |
| 1777925416 | 18.33° C | 63% | 1013.4 hPa | 0 mm | - | 0 W/m² | - |
| 1777925116 | 18.89° C | 61% | 1013.5 hPa | 0 mm | - | 0 W/m² | - |
| 1777924816 | 18.89° C | 61% | 1013.7 hPa | 0 mm | - | 0 W/m² | - |
| 1777924516 | 19.44° C | 59% | 1013.7 hPa | 0 mm | - | 0 W/m² | - |
| 1777924216 | 19.44° C | 58% | 1013.7 hPa | 0 mm | - | 0 W/m² | - |
| 1777923916 | 19.44° C | 57% | 1013.7 hPa | 0 mm | - | 0 W/m² | - |
| 1777923616 | 19.44° C | 57% | 1013.8 hPa | 0 mm | - | 0 W/m² | - |
| 1777923316 | 19.44° C | 57% | 1013.7 hPa | 0 mm | - | 0 W/m² | - |
| 1777923016 | 19.44° C | 57% | 1013.7 hPa | 0 mm | - | 0 W/m² | - |
| 1777922846 | 19.44° C | 57% | 1013.7 hPa | 0 mm | - | 0 W/m² | - |
| 1777922416 | 18.89° C | 57% | 1013.6 hPa | 0 mm | - | 0 W/m² | - |
| 1777922116 | 19.44° C | 60% | 1013.5 hPa | 0 mm | - | 0 W/m² | - |
| 1777921816 | 19.44° C | 58% | 1013.5 hPa | 0 mm | - | 0 W/m² | - |
| 1777921516 | 19.44° C | 57% | 1013.5 hPa | 0 mm | - | 0 W/m² | - |
| 1777921216 | 19.44° C | 59% | 1013.5 hPa | 0 mm | - | 0 W/m² | - |
| 1777920916 | 19.44° C | 57% | 1013.4 hPa | 0 mm | - | 0 W/m² | - |
| 1777920616 | 19.44° C | 55% | 1013.4 hPa | 0 mm | - | 0 W/m² | - |
| 1777920316 | 19.44° C | 56% | 1013.4 hPa | 0 mm | - | 0 W/m² | - |
| 1777920016 | 19.44° C | 56% | 1013.3 hPa | 0 mm | - | 0 W/m² | - |
| 1777919716 | 19.44° C | 55% | 1013.3 hPa | 0 mm | - | 0 W/m² | - |
* Rain latest hour (hover to see other rain measurements)
** Current wind speed in m/s (hover to see current wind gust speed)